Kaisei Maru — JD3114 — position and weather

sailwx.info

Track history (hours):
 
Tides and Currents Weather Stations Pressure Air Temp Water Temp Dewpoint Dewpoint Depression Visibility Wind Speed Wind Dir Waves Ship Positions

Kaisei Maru

Last reported at 2014-Nov-26 10:23 UTC. Time now 2014-Nov-26 12:44 UTC.
Position N 34°08' E 134°56'.

Length 52 m; draft 3.5 m.

Type: Tanker. MMSI: 431001837.

Date/timePositionNaut miles runAvg speedWind from/ knotsBaromVisibWave heightAir tempDewpointWater temp
2014-Nov-26 10:23N 34°08' E 134°56'1411.1
2014-Nov-26 09:09N 34°22' E 135°00'711.3
2014-Nov-26 08:32N 34°25' E 135°07'1010.4
2014-Nov-26 07:33N 34°29' E 135°19'1 1.4
2014-Nov-26 06:31N 34°28' E 135°21'0 0.0
2014-Nov-26 05:25N 34°28' E 135°21'0 0.0
2014-Nov-26 04:31N 34°28' E 135°21'3 0.5
2014-Nov-25 23:16N 34°26' E 135°19'6 8.1
2014-Nov-25 22:33N 34°31' E 135°18'1010.3
2014-Nov-25 21:33N 34°41' E 135°13'1 0.7
2014-Nov-25 20:16N 34°41' E 135°12'0 0.0
2014-Nov-25 19:28N 34°41' E 135°12'0 0.0
2014-Nov-25 18:28N 34°41' E 135°12'0 0.0
2014-Nov-25 17:28N 34°41' E 135°12'0 0.0
2014-Nov-25 16:28N 34°41' E 135°12'0 0.0
2014-Nov-25 15:28N 34°41' E 135°12'0 0.0
2014-Nov-25 14:22N 34°41' E 135°12'0 0.0
2014-Nov-25 13:28N 34°41' E 135°12'0 0.0
2014-Nov-25 12:28N 34°41' E 135°12'0 0.0
2014-Nov-25 11:34N 34°41' E 135°12'0 0.0
2014-Nov-25 10:28N 34°41' E 135°12'0 0.0
2014-Nov-25 09:27N 34°41' E 135°12'0 0.0
2014-Nov-25 08:34N 34°41' E 135°12'0 0.0
2014-Nov-25 07:10N 34°41' E 135°12'0 0.0
2014-Nov-25 06:28N 34°41' E 135°12'0 0.5
2014-Nov-25 05:33N 34°41' E 135°13'9 7.2
2014-Nov-25 04:17N 34°42' E 135°24'0 0.1
2014-Nov-24 23:28N 34°42' E 135°23'1 0.8
2014-Nov-24 22:33N 34°42' E 135°24'8 7.8
2014-Nov-24 21:33N 34°41' E 135°14'2 1.6
2014-Nov-24 20:33N 34°41' E 135°12'0 0.0
2014-Nov-24 19:33N 34°41' E 135°12'0 0.0
2014-Nov-24 18:33N 34°41' E 135°12'0 0.0
2014-Nov-24 17:33N 34°41' E 135°12'0 0.0
2014-Nov-24 16:33N 34°41' E 135°12'0 0.0
2014-Nov-24 15:33N 34°41' E 135°12'0 0.0
2014-Nov-24 14:33N 34°41' E 135°12'0 0.0
2014-Nov-24 13:33N 34°41' E 135°12'0 0.0
2014-Nov-24 12:27N 34°41' E 135°12'0 0.0
2014-Nov-24 11:33N 34°41' E 135°12'0 0.0
2014-Nov-24 10:33N 34°41' E 135°12'0 0.0
2014-Nov-24 09:33N 34°41' E 135°12'0 0.0
2014-Nov-24 08:21N 34°41' E 135°12'0 0.0
2014-Nov-24 07:33N 34°41' E 135°12'0 0.0
2014-Nov-24 06:27N 34°41' E 135°12'0 0.0
2014-Nov-24 05:33N 34°41' E 135°12'0 0.0
2014-Nov-24 04:33N 34°41' E 135°12'0 0.0
2014-Nov-24 03:33N 34°41' E 135°12'0 0.0
2014-Nov-24 02:27N 34°41' E 135°12'0 0.0
2014-Nov-24 01:27N 34°41' E 135°12'0 0.0
2014-Nov-24 00:31N 34°41' E 135°12'0 0.0
2014-Nov-23 23:28N 34°41' E 135°12'0 0.0
2014-Nov-23 22:28N 34°41' E 135°12'0 0.0
2014-Nov-23 21:22N 34°41' E 135°12'0 0.0
2014-Nov-23 20:28N 34°41' E 135°12'0 0.0
2014-Nov-23 19:28N 34°41' E 135°12'0 0.0
2014-Nov-23 18:28N 34°41' E 135°12'0 0.0
2014-Nov-23 17:28N 34°41' E 135°12'4 4.0
2014-Nov-23 16:33N 34°39' E 135°16'10 9.7
2014-Nov-23 15:33N 34°30' E 135°11'9 9.3
2014-Nov-23 14:33N 34°22' E 135°06'10 9.2
2014-Nov-23 13:27N 34°12' E 135°02'241 8.0
2014-Nov-22 07:22N 35°13' E 139°46'8 9.8
2014-Nov-22 06:33N 35°20' E 139°42'9 9.4
2014-Nov-22 05:33N 35°29' E 139°47'  
2014-Nov-19 18:16N 35°21' E 139°45'710.2
2014-Nov-19 17:32N 35°14' E 139°47'  
2014-Nov-17 06:22N 34°01' E 135°02'810.5
2014-Nov-17 05:34N 34°09' E 135°03'12 9.9
2014-Nov-17 04:24N 34°20' E 135°06'910.4
2014-Nov-17 03:30N 34°27' E 135°13'5 1.3
2014-Nov-16 23:19N 34°26' E 135°19'5 7.0
2014-Nov-16 22:33N 34°31' E 135°18'1110.5
2014-Nov-16 21:33N 34°41' E 135°14'1 1.0
2014-Nov-16 20:23N 34°41' E 135°12'0 0.0
2014-Nov-16 19:29N 34°41' E 135°12'0 0.0
2014-Nov-16 18:29N 34°41' E 135°12'0 0.0
2014-Nov-16 17:29N 34°41' E 135°12'0 0.0
2014-Nov-16 16:23N 34°41' E 135°12'0 0.0
2014-Nov-16 15:29N 34°41' E 135°12'0 0.0
2014-Nov-16 14:23N 34°41' E 135°12'0 0.0
2014-Nov-16 13:29N 34°41' E 135°12'0 0.0
2014-Nov-16 12:17N 34°41' E 135°12'0 0.0
2014-Nov-16 11:29N 34°41' E 135°12'0 0.0
2014-Nov-16 10:29N 34°41' E 135°12'  
Track history (hours):
 
Tides and Currents Weather Stations Pressure Air Temp Water Temp Dewpoint Dewpoint Depression Visibility Wind Speed Wind Dir Waves Ship Positions

Kaisei Maru

Last reported at 2014-Nov-26 10:23 UTC. Time now 2014-Nov-26 12:44 UTC.
Position N 34°08' E 134°56'.

Length 52 m; draft 3.5 m.

Type: Tanker. MMSI: 431001837.

Date/timePositionNaut miles runAvg speedWind from/ knotsBaromVisibWave heightAir tempDewpointWater temp
2014-Nov-26 10:23N 34°08' E 134°56'1411.1
2014-Nov-26 09:09N 34°22' E 135°00'711.3
2014-Nov-26 08:32N 34°25' E 135°07'1010.4
2014-Nov-26 07:33N 34°29' E 135°19'1 1.4
2014-Nov-26 06:31N 34°28' E 135°21'0 0.0
2014-Nov-26 05:25N 34°28' E 135°21'0 0.0
2014-Nov-26 04:31N 34°28' E 135°21'3 0.5
2014-Nov-25 23:16N 34°26' E 135°19'6 8.1
2014-Nov-25 22:33N 34°31' E 135°18'1010.3
2014-Nov-25 21:33N 34°41' E 135°13'1 0.7
2014-Nov-25 20:16N 34°41' E 135°12'0 0.0
2014-Nov-25 19:28N 34°41' E 135°12'0 0.0
2014-Nov-25 18:28N 34°41' E 135°12'0 0.0
2014-Nov-25 17:28N 34°41' E 135°12'0 0.0
2014-Nov-25 16:28N 34°41' E 135°12'0 0.0
2014-Nov-25 15:28N 34°41' E 135°12'0 0.0
2014-Nov-25 14:22N 34°41' E 135°12'0 0.0
2014-Nov-25 13:28N 34°41' E 135°12'0 0.0
2014-Nov-25 12:28N 34°41' E 135°12'0 0.0
2014-Nov-25 11:34N 34°41' E 135°12'0 0.0
2014-Nov-25 10:28N 34°41' E 135°12'0 0.0
2014-Nov-25 09:27N 34°41' E 135°12'0 0.0
2014-Nov-25 08:34N 34°41' E 135°12'0 0.0
2014-Nov-25 07:10N 34°41' E 135°12'0 0.0
2014-Nov-25 06:28N 34°41' E 135°12'0 0.5
2014-Nov-25 05:33N 34°41' E 135°13'9 7.2
2014-Nov-25 04:17N 34°42' E 135°24'0 0.1
2014-Nov-24 23:28N 34°42' E 135°23'1 0.8
2014-Nov-24 22:33N 34°42' E 135°24'8 7.8
2014-Nov-24 21:33N 34°41' E 135°14'2 1.6
2014-Nov-24 20:33N 34°41' E 135°12'0 0.0
2014-Nov-24 19:33N 34°41' E 135°12'0 0.0
2014-Nov-24 18:33N 34°41' E 135°12'0 0.0
2014-Nov-24 17:33N 34°41' E 135°12'0 0.0
2014-Nov-24 16:33N 34°41' E 135°12'0 0.0
2014-Nov-24 15:33N 34°41' E 135°12'0 0.0
2014-Nov-24 14:33N 34°41' E 135°12'0 0.0
2014-Nov-24 13:33N 34°41' E 135°12'0 0.0
2014-Nov-24 12:27N 34°41' E 135°12'0 0.0
2014-Nov-24 11:33N 34°41' E 135°12'0 0.0
2014-Nov-24 10:33N 34°41' E 135°12'0 0.0
2014-Nov-24 09:33N 34°41' E 135°12'0 0.0
2014-Nov-24 08:21N 34°41' E 135°12'0 0.0
2014-Nov-24 07:33N 34°41' E 135°12'0 0.0
2014-Nov-24 06:27N 34°41' E 135°12'0 0.0
2014-Nov-24 05:33N 34°41' E 135°12'0 0.0
2014-Nov-24 04:33N 34°41' E 135°12'0 0.0
2014-Nov-24 03:33N 34°41' E 135°12'0 0.0
2014-Nov-24 02:27N 34°41' E 135°12'0 0.0
2014-Nov-24 01:27N 34°41' E 135°12'0 0.0
2014-Nov-24 00:31N 34°41' E 135°12'0 0.0
2014-Nov-23 23:28N 34°41' E 135°12'0 0.0
2014-Nov-23 22:28N 34°41' E 135°12'0 0.0
2014-Nov-23 21:22N 34°41' E 135°12'0 0.0
2014-Nov-23 20:28N 34°41' E 135°12'0 0.0
2014-Nov-23 19:28N 34°41' E 135°12'0 0.0
2014-Nov-23 18:28N 34°41' E 135°12'0 0.0
2014-Nov-23 17:28N 34°41' E 135°12'4 4.0
2014-Nov-23 16:33N 34°39' E 135°16'10 9.7
2014-Nov-23 15:33N 34°30' E 135°11'9 9.3
2014-Nov-23 14:33N 34°22' E 135°06'10 9.2
2014-Nov-23 13:27N 34°12' E 135°02'241 8.0
2014-Nov-22 07:22N 35°13' E 139°46'8 9.8
2014-Nov-22 06:33N 35°20' E 139°42'9 9.4
2014-Nov-22 05:33N 35°29' E 139°47'  
2014-Nov-19 18:16N 35°21' E 139°45'710.2
2014-Nov-19 17:32N 35°14' E 139°47'  
2014-Nov-17 06:22N 34°01' E 135°02'810.5
2014-Nov-17 05:34N 34°09' E 135°03'12 9.9
2014-Nov-17 04:24N 34°20' E 135°06'910.4
2014-Nov-17 03:30N 34°27' E 135°13'5 1.3
2014-Nov-16 23:19N 34°26' E 135°19'5 7.0
2014-Nov-16 22:33N 34°31' E 135°18'1110.5
2014-Nov-16 21:33N 34°41' E 135°14'1 1.0
2014-Nov-16 20:23N 34°41' E 135°12'0 0.0
2014-Nov-16 19:29N 34°41' E 135°12'0 0.0
2014-Nov-16 18:29N 34°41' E 135°12'0 0.0
2014-Nov-16 17:29N 34°41' E 135°12'0 0.0
2014-Nov-16 16:23N 34°41' E 135°12'0 0.0
2014-Nov-16 15:29N 34°41' E 135°12'0 0.0
2014-Nov-16 14:23N 34°41' E 135°12'0 0.0
2014-Nov-16 13:29N 34°41' E 135°12'0 0.0
2014-Nov-16 12:17N 34°41' E 135°12'0 0.0
2014-Nov-16 11:29N 34°41' E 135°12'0 0.0
2014-Nov-16 10:29N 34°41' E 135°12'  

Dump ship's entire track history